Regional Weather Roundup
Issued by NWS

Home | Current Version | Previous Version | Graphics & Text | Print | Product List | Glossary On
Versions: 1 2 3 4 5 6 7 8 9 10 11 12 13 14 15 16 17 18 19 20 21 22 23 24 25 26 27 28 29 30 31 32 33 34 35 36 37 38 39 40 41 42 43 44 45 46 47 48 49 50
000
ASUS43 KTOP 052259
RWRKS

WEATHER ROUNDUP FOR KANSAS
NATIONAL WEATHER SERVICE GOODLAND KS
600 PM CDT TUE MAY 05 2015

NOTE:  "FAIR" INDICATES FEW OR NO CLOUDS BELOW 12,000 FEET WITH NO
SIGNIFICANT WEATHER AND/OR OBSTRUCTIONS TO VISIBILITY.

KSZ001>006-013>018-027>032-041>047-060000-
NORTHWEST KANSAS

CITY           SKY/WX    TMP DP  RH WIND       PRES   REMARKS
GOODLAND       LGT RAIN  57  55  93 SE23G32   29.80F
HAYS           CLOUDY    61  54  77 SE14      29.89F
HILL CITY      LGT RAIN  61  57  87 SE10      29.88F
RUSSELL        LGT RAIN  63  58  83 SE16      29.89F
$$

KSZ061>065-074>080-084>089-060000-
SOUTHWEST KANSAS

CITY           SKY/WX    TMP DP  RH WIND       PRES   REMARKS
DODGE CITY     LGT RAIN  61  57  87 SE22G33   29.83F
ELKHART          N/A     67  52  59 S12         N/A
GARDEN CITY    LGT RAIN  59  58  96 SE25      29.79F
GREAT BEND     CLOUDY    61  55  82 SE21G26   29.89F
LIBERAL        PTSUNNY   66  59  77 S14       29.80F
$$

KSZ066>073-081>083-090>101-060000-
SOUTHEAST KANSAS

CITY           SKY/WX    TMP DP  RH WIND       PRES   REMARKS
CHANUTE        LGT RAIN  69  65  86 S13G21    29.99F
COFFEYVILLE    CLOUDY    70  64  81 S10       29.97F
HUTCHINSON     LGT RAIN  65  59  81 S10       29.92F
NEWTON         CLOUDY    70  52  52 S14       29.95F
PARSONS        CLOUDY    69  64  84 S6        29.99F
WICHITA INTL   LGT RAIN  72  52  49 S17G25    29.92F
WICHITA JABRA  CLOUDY    73  51  46 S22G29    29.93F
WINFIELD       CLOUDY    69  58  67 S8        29.96S
$$

KSZ007>012-019>026-033>040-048>060-102>105-060000-
NORTHEAST KANSAS

CITY           SKY/WX    TMP DP  RH WIND       PRES   REMARKS
CONCORDIA      CLOUDY    74  53  48 SE17G24   29.92F
EMPORIA        LGT RAIN  69  61  75 SE18G26   29.96S
LAWRENCE       PTSUNNY   80  57  45 SE16      29.98F
MANHATTAN      PTSUNNY   76  58  53 S10       29.93F
OLATHE IND     CLOUDY    79  57  46 SE14      30.00F
OLATHE EXE     CLOUDY    76  60  57 SE15G22   30.00F
SALINA         CLOUDY    73  54  51 S15       29.92F
TOPEKA BILLARD PTSUNNY   80  57  45 SE15G22   29.96F
TOPEKA FORBES  PTSUNNY   79  56  45 SE15      29.96F
$$


USA.gov is the U.S. government's official web portal to all federal, state and local government web resources and services.